Regional Weather Roundup
Issued by NWS New Orleans/Baton Rouge, LA

Home | Current Version | Previous Version | Text Only | Print | Product List | Glossary On
Versions: 1 2 3 4 5 6 7 8 9 10 11 12 13 14 15 16 17 18 19 20 21 22 23 24 25 26 27 28 29 30 31 32 33 34 35 36 37 38 39 40 41 42 43 44 45 46 47 48 49 50
000
ASUS44 KLIX 061911
RWRLIX
NEW ORLEANS REGIONAL WEATHER ROUNDUP
NATIONAL WEATHER SERVICE NEW ORLEANS LA
200 PM CDT WED MAY 06 2015

NOTE: "FAIR" INDICATES FEW OR NO CLOUDS BELOW 12,000 FEET WITH NO
      SIGNIFICANT WEATHER AND/OR OBSTRUCTIONS TO VISIBILITY.
      SKY/WX - SKY CONDITION AND SIGNIFICANT WEATHER.
      TMP - AIR TEMPERATURE.     DP    - DEWPOINT TEMPERATURE.
      RH  - RELATIVE HUMIDITY.   PRES  - PRESSURE.
      HI  - HEAT INDEX.          WCI   - WIND CHILL INDEX.

*  THESE STATIONS ARE NOT NWS OR FAA STATIONS AND ARE NOT UNDER
   NWS QUALITY CONTROL.

LAZ038-040-048-061>063-065>067-069-062000-
SOUTHEAST LOUISIANA

CITY           SKY/WX    TMP DP  RH WIND       PRES   REMARKS
N.O. AUDUBON     N/A     85  66  52 MISG        N/A
N.O. INTL ARPT PTSUNNY   85  62  46 S13       30.05F
N.O. LAKEFRONT LGT RAIN  78  68  71 E12       30.07S
SLIDELL        PTSUNNY   81  68  64 SE13      30.06F
BATON ROUGE    MOSUNNY   85  63  47 SE9       30.04F
BOOTHVILLE     PTSUNNY   79  70  74 E9        30.06F
BELLE CHASSE   PTSUNNY   82  67  60 SE14      30.05F
BOGALUSA*        N/A     83  65  53 S9        30.09F
GALLIANO*      MOCLDY    83  66  57 MISG      30.05F
NEW ROADS*       N/A     83  62  49 SE9       30.04F
GONZALES*      CLOUDY    82  61  49 SE3       30.04F
HAMMOND*       MOSUNNY   84  59  42 S10       30.08F
HOUMA*         PTSUNNY   82  64  54 SE10      30.05F
PORT FOURCHON* CLEAR     79  68  69 E7        30.09S

$$

MSZ070-080>082-062000-
SOUTHERN MISSISSIPPI

CITY           SKY/WX    TMP DP  RH WIND       PRES   REMARKS
MCCOMB         MOSUNNY   83  60  45 S6        30.07F
GULFPORT       MOSUNNY   79  68  69 SE18      30.07F
BILOXI         MOSUNNY   80  69  69 SE16G23   30.07F
PASCAGOULA     PTSUNNY   81  67  62 SE14      30.08F
STENNIS ARPT*  PTSUNNY   77  64  65 MISG      30.08F

$$

COASTAL OBSERVATIONS
LAKE AND NEARSHORE STATIONS

STATION/POSITION TIME  TEMP    WIND        PRES    WAVE
                       AIR SEA DIR/SP/G            HT/PER
                 (UTC) (F)     (DEG/KT/KT) (MB)    (FT/S)
PASCAGOULA       1800   78     120/ 12/ 17 1019.0
WAVELAND YACHT   1800   75 75  130/ 14/ 19 1019.1
GRAND ISLE       1800   78 76  110/  5/  9 1018.0
SOUTHWEST PASS   1800      67  170/  5/  7 1018.5
NEW CANAL        1800   81 76  140/  4/ 10 1018.5
SHELL BEACH      1800   77 77  120/ 16/ 19 1017.7

OFFSHORE STATIONS

STATION/POSITION TIME  TEMP    WIND        PRES    WAVE
                       AIR SEA DIR/SP/G            HT/PER
                 (UTC) (F)     (DEG/KT/KT) (MB)    (FT/S)
64 S DAUPHIN ISL 1850   75 75  120/ 14/ 17 1018.7    5/ 6

$$



USA.gov is the U.S. government's official web portal to all federal, state and local government web resources and services.